Montpelier, VT

1:01 PM EST on November 15, 2019 (GMT -0500)
Knapp State

Weather History for KMPV - August, 2019

Change the Weather History Date:

Monday, August 12, 2019

  Actual Average Record
Temperature  
Mean Temperature 65 °F 66 °F  
Max Temperature 78 °F 77 °F 88 °F (1988)
Min Temperature 52 °F 55 °F 42 °F (1950)
Degree Days  
Heating Degree Days 0 2  
Month to date heating degree days 19 20  
Since 1 June heating degree days 172 181  
Since 1 July heating degree days 28 60  
Cooling Degree Days 0 3  
Month to date cooling degree days 15 36  
Year to date cooling degree days 173 204  
Since 1 June cooling degree days 172 194  
Growing Degree Days 15 (Base 50)    
Moisture  
Dew Point 57 °F    
Average Humidity 70    
Maximum Humidity 100    
Minimum Humidity 45    
Precipitation  
Precipitation 0.00 in 0.14 in 1.74 in (2003)
Month to date precipitation 1.94 1.80  
Year to date precipitation 32.49 22.59  
Sea Level Pressure  
Sea Level Pressure 29.91 in    
Wind  
Wind Speed 3 mph ()    
Max Wind Speed 12 mph    
Max Gust Speed 20 mph    
Visibility 10.0 miles    
Events      
T = Trace of Precipitation, MM = Missing Value Source: Averaged Metar Reports

Daily Weather History Graph

Daily Weather History Graph

Search for Another Location

Airport or City:

Astronomy

Aug. 12, 2019 Rise Set
Actual Time 5:49 AM EDT 7:59 PM EDT
Civil Twilight 5:18 AM EDT 8:31 PM EDT
Nautical Twilight 4:38 AM EDT 9:10 PM EDT
Astronomical Twilight 3:55 AM EDT 9:53 PM EDT
Moon 6:32 PM EDT (8/12) 2:51 AM EDT (8/12)
Length of Visible Light 15h 13m
Length of Day
14h 09m
Waxing Gibbous, 93% of the Moon is Illuminated
Aug 12
Waxing Gibbous
Aug 15
Full
Aug 23
Last Quarter
Aug 30
New
Sep 5
First Quarter

Hourly Weather History & Observations

Time (EDT) Temp. Dew Point Humidity Pressure Visibility Wind Dir Wind Speed Gust Speed Precip Events Conditions
12:51 AM 57.0 °F 53.1 °F 87% 29.99 in 10.0 mi South 5.8 mph - N/A   Clear
1:51 AM 55.9 °F 53.1 °F 90% 29.97 in 10.0 mi SSW 4.6 mph - N/A   Clear
2:51 AM 55.9 °F 54.0 °F 93% 29.97 in 10.0 mi Calm Calm - N/A   Clear
3:51 AM 54.0 °F 53.1 °F 97% 29.97 in 10.0 mi Calm Calm - N/A   Clear
4:51 AM 54.0 °F 53.1 °F 97% 29.98 in 10.0 mi Calm Calm - N/A   Partly Cloudy
5:51 AM 53.1 °F 52.0 °F 96% 29.97 in 10.0 mi Calm Calm - N/A   Clear
6:51 AM 57.9 °F 55.9 °F 93% 29.97 in 10.0 mi Calm Calm - N/A   Clear
7:51 AM 61.0 °F 55.9 °F 83% 29.97 in 10.0 mi Calm Calm - N/A   Clear
8:51 AM 66.0 °F 57.9 °F 75% 29.96 in 10.0 mi NNE 3.5 mph - N/A   Clear
9:51 AM 72.0 °F 59.0 °F 64% 29.96 in 10.0 mi Variable 4.6 mph - N/A   Clear
10:51 AM 73.0 °F 55.9 °F 55% 29.95 in 10.0 mi North - - N/A   Mostly Cloudy
11:51 AM 75.0 °F 57.9 °F 55% 29.93 in 10.0 mi Variable 4.6 mph - N/A   Scattered Clouds
12:51 PM 77.0 °F 55.9 °F 48% 29.91 in 10.0 mi WNW 8.1 mph - N/A   Partly Cloudy
1:51 PM 78.1 °F 55.0 °F 45% 29.90 in 10.0 mi Variable 5.8 mph - N/A   Partly Cloudy
2:51 PM 77.0 °F 57.0 °F 50% 29.88 in 10.0 mi West 6.9 mph - N/A   Mostly Cloudy
3:51 PM 77.0 °F 57.9 °F 52% 29.88 in 10.0 mi SSW 6.9 mph - N/A   Clear
4:51 PM 75.9 °F 60.1 °F 58% 29.87 in 10.0 mi Variable 3.5 mph - N/A   Scattered Clouds
5:51 PM 77.0 °F 61.0 °F 58% 29.86 in 10.0 mi Calm Calm - N/A   Clear
6:51 PM 75.0 °F 61.0 °F 62% 29.84 in 10.0 mi SSW 4.6 mph - N/A   Partly Cloudy
7:51 PM 72.0 °F 59.0 °F 64% 29.83 in 10.0 mi SSW 5.8 mph - N/A   Clear
8:51 PM 73.0 °F 57.9 °F 59% 29.84 in 10.0 mi SW 9.2 mph - N/A   Partly Cloudy
9:51 PM 73.0 °F 59.0 °F 61% 29.83 in 10.0 mi SW 9.2 mph - N/A   Clear
10:51 PM 72.0 °F 59.0 °F 64% 29.82 in 10.0 mi SW 9.2 mph - N/A   Clear
11:51 PM 72.0 °F 59.0 °F 64% 29.82 in 10.0 mi WSW 9.2 mph - N/A   Partly Cloudy